,,,PA_Meas_PMT16A,,PR_Meas_QMR101_102,,RH_Meas_QMH101,,SR_Meas_QMS101,,TA_Meas_QMH101,,GenWind,,GenWind,
date,time,status,PA,status,PR,status,RH,status,SR,status,TA,status,DirAvg,status,SpdAvg,
2009-12-17, 00:00:04,VALID,1005.29,VALID,0,VALID,82.4987,VALID,0,VALID,25.8064,VALID,289,VALID,1.95859,
2009-12-17, 00:01:04,VALID,1005.28,VALID,0,VALID,82.2164,VALID,0,VALID,25.8629,VALID,311,VALID,0.93125,
2009-12-17, 00:02:04,VALID,1005.3,VALID,0,VALID,82.0715,VALID,0,VALID,25.9213,VALID,311,VALID,0.418359,
2009-12-17, 00:03:04,VALID,1005.3,VALID,0,VALID,82.1325,VALID,0,VALID,25.9622,VALID,296,VALID,0.247656,
2009-12-17, 00:04:04,VALID,1005.28,VALID,0,VALID,81.9571,VALID,0,VALID,25.9602,VALID,348,VALID,0.601563,
2009-12-17, 00:05:04,VALID,1005.3,VALID,0,VALID,81.8426,VALID,0,VALID,25.9817,VALID,294,VALID,1.04023,
2009-12-17, 00:06:04,VALID,1005.31,VALID,0,VALID,81.896,VALID,0,VALID,25.9817,VALID,277,VALID,0.813281,
2009-12-17, 00:07:04,VALID,1005.29,VALID,0,VALID,81.9647,VALID,0,VALID,25.9602,VALID,295,VALID,0.584766,
2009-12-17, 00:08:04,VALID,1005.28,VALID,0,VALID,81.9952,VALID,0,VALID,26.0012,VALID,282,VALID,0.473437,
2009-12-17, 00:09:04,VALID,1005.27,VALID,0,VALID,81.8503,VALID,0,VALID,26.0012,VALID,349,VALID,0.319531,
2009-12-17, 00:10:04,VALID,1005.27,VALID,0,VALID,81.9647,VALID,0,VALID,25.9817,VALID,343,VALID,0.3,
2009-12-17, 00:11:04,VALID,1005.24,VALID,0,VALID,81.8731,VALID,0,VALID,25.9817,VALID,281,VALID,0.876562,
2009-12-17, 00:12:04,VALID,1005.21,VALID,0,VALID,81.8655,VALID,0,VALID,25.9817,VALID,346,VALID,0.66875,
2009-12-17, 00:13:04,VALID,1005.19,VALID,0,VALID,81.9342,VALID,0,VALID,25.9817,VALID,352,VALID,0.472656,
2009-12-17, 00:14:04,VALID,1005.16,VALID,0,VALID,81.8274,VALID,0,VALID,26.0012,VALID,305,VALID,0.276563,
2009-12-17, 00:15:04,VALID,1005.15,VALID,0,VALID,81.7129,VALID,0,VALID,26.0012,VALID,352,VALID,0.587109,
2009-12-17, 00:16:04,VALID,1005.17,VALID,0,VALID,81.774,VALID,0,VALID,25.9817,VALID,352,VALID,0.538281,
2009-12-17, 00:17:04,VALID,1005.16,VALID,0,VALID,81.8884,VALID,0,VALID,25.9622,VALID,301,VALID,0.419141,
2009-12-17, 00:18:04,VALID,1005.13,VALID,0,VALID,82.0715,VALID,0,VALID,25.9642,VALID,301,VALID,0.00585938,
2009-12-17, 00:19:04,VALID,1005.14,VALID,0,VALID,82.3461,VALID,0,VALID,25.9232,VALID,301,VALID,0,
2009-12-17, 00:20:04,VALID,1005.17,VALID,0,VALID,82.4301,VALID,0,VALID,25.8648,VALID,301,VALID,0,
2009-12-17, 00:21:04,VALID,1005.15,VALID,0,VALID,82.514,VALID,0,VALID,25.8259,VALID,301,VALID,0,
2009-12-17, 00:22:04,VALID,1005.18,VALID,0,VALID,82.781,VALID,0,VALID,25.8083,VALID,301,VALID,0,
2009-12-17, 00:23:04,VALID,1005.17,VALID,0,VALID,82.7276,VALID,0,VALID,25.748,VALID,291,VALID,0.682031,
2009-12-17, 00:24:04,VALID,1005.22,VALID,0,VALID,82.8954,VALID,0,VALID,25.7285,VALID,9,VALID,0.411328,
2009-12-17, 00:25:04,VALID,1005.24,VALID,0,VALID,82.9564,VALID,0,VALID,25.6895,VALID,321,VALID,0.428516,
2009-12-17, 00:26:04,VALID,1005.26,VALID,0,VALID,83.2845,VALID,0,VALID,25.67,VALID,282,VALID,0.295312,
2009-12-17, 00:27:04,VALID,1005.23,VALID,0,VALID,83.4065,VALID,0,VALID,25.6311,VALID,350,VALID,0.683594,
2009-12-17, 00:28:04,VALID,1005.23,VALID,0,VALID,83.5286,VALID,0,VALID,25.5921,VALID,349,VALID,0.586328,
2009-12-17, 00:29:04,VALID,1005.21,VALID,0,VALID,83.7117,VALID,0,VALID,25.5532,VALID,346,VALID,0.603125,
2009-12-17, 00:30:04,VALID,1005.2,VALID,0,VALID,83.9711,VALID,0,VALID,25.4948,VALID,346,VALID,0.578516,
2009-12-17, 00:31:04,VALID,1005.17,VALID,0,VALID,84.3754,VALID,0,VALID,25.4169,VALID,347,VALID,0.774609,
2009-12-17, 00:32:04,VALID,1005.2,VALID,0,VALID,84.7721,VALID,0,VALID,25.339,VALID,355,VALID,0.582422,
2009-12-17, 00:33:04,VALID,1005.17,VALID,0,VALID,85.0315,VALID,0,VALID,25.3,VALID,347,VALID,0.773828,
2009-12-17, 00:34:04,VALID,1005.19,VALID,0,VALID,85.1154,VALID,0,VALID,25.2611,VALID,342,VALID,0.500391,
2009-12-17, 00:35:04,VALID,1005.19,VALID,0,VALID,85.1459,VALID,0,VALID,25.2611,VALID,350,VALID,0.718359,
2009-12-17, 00:36:04,VALID,1005.18,VALID,0,VALID,85.1688,VALID,0,VALID,25.3019,VALID,346,VALID,0.735937,
2009-12-17, 00:37:04,VALID,1005.22,VALID,0,VALID,85.1536,VALID,0,VALID,25.3,VALID,352,VALID,0.760938,
2009-12-17, 00:38:04,VALID,1005.19,VALID,0,VALID,85.1536,VALID,0,VALID,25.3,VALID,351,VALID,0.80625,
2009-12-17, 00:39:04,VALID,1005.18,VALID,0,VALID,85.1154,VALID,0,VALID,25.2806,VALID,355,VALID,0.876953,
2009-12-17, 00:40:04,VALID,1005.19,VALID,0,VALID,85.0849,VALID,0,VALID,25.3195,VALID,337,VALID,0.287109,
2009-12-17, 00:41:04,VALID,1005.19,VALID,0,VALID,85.062,VALID,0,VALID,25.339,VALID,346,VALID,0.534375,
2009-12-17, 00:42:04,VALID,1005.16,VALID,0,VALID,84.9247,VALID,0,VALID,25.337,VALID,352,VALID,0.704297,
2009-12-17, 00:43:04,VALID,1005.17,VALID,0,VALID,84.7721,VALID,0,VALID,25.3565,VALID,352,VALID,0.176953,
2009-12-17, 00:44:04,VALID,1005.16,VALID,0,VALID,84.7416,VALID,0,VALID,25.3779,VALID,352,VALID,0.504297,
2009-12-17, 00:45:04,VALID,1005.14,VALID,0,VALID,84.7111,VALID,0,VALID,25.3974,VALID,354,VALID,0.374219,
2009-12-17, 00:46:04,VALID,1005.11,VALID,0,VALID,84.6043,VALID,0,VALID,25.4169,VALID,353,VALID,0.602344,
2009-12-17, 00:47:04,VALID,1005.12,VALID,0,VALID,84.6424,VALID,0,VALID,25.4169,VALID,357,VALID,0.789063,
2009-12-17, 00:48:04,VALID,1005.09,VALID,0,VALID,84.6577,VALID,0,VALID,25.4169,VALID,354,VALID,0.720312,
2009-12-17, 00:49:04,VALID,1005.09,VALID,0,VALID,84.6729,VALID,0,VALID,25.4169,VALID,340,VALID,0.705469,
2009-12-17, 00:50:04,VALID,1005.09,VALID,0,VALID,84.6424,VALID,0,VALID,25.3974,VALID,337,VALID,0.530469,
2009-12-17, 00:51:04,VALID,1005.07,VALID,0,VALID,84.7492,VALID,0,VALID,25.3974,VALID,337,VALID,0.000390625,
2009-12-17, 00:52:04,VALID,1005.01,VALID,0,VALID,84.7263,VALID,0,VALID,25.376,VALID,342,VALID,0.678125,
2009-12-17, 00:53:04,VALID,1005,VALID,0,VALID,84.9323,VALID,0,VALID,25.3974,VALID,344,VALID,0.653125,
2009-12-17, 00:54:04,VALID,1004.99,VALID,0,VALID,85.1307,VALID,0,VALID,25.3604,VALID,344,VALID,0.645312,
2009-12-17, 00:55:04,VALID,1005,VALID,0,VALID,85.5426,VALID,0,VALID,25.3195,VALID,347,VALID,0.674609,
2009-12-17, 00:56:04,VALID,1005,VALID,0,VALID,85.6876,VALID,0,VALID,25.2806,VALID,346,VALID,0.69375,
2009-12-17, 00:57:04,VALID,1004.99,VALID,0,VALID,85.6571,VALID,0,VALID,25.2611,VALID,350,VALID,0.812891,
2009-12-17, 00:58:04,VALID,1004.99,VALID,0,VALID,85.6494,VALID,0,VALID,25.2611,VALID,343,VALID,0.679688,
2009-12-17, 00:59:04,VALID,1004.94,VALID,0,VALID,85.7639,VALID,0,VALID,25.2592,VALID,353,VALID,0.898047,
2009-12-17, 01:00:04,VALID,1004.95,VALID,0,VALID,85.7105,VALID,0.100563,VALID,25.3,VALID,352,VALID,0.701172,
2009-12-17, 01:01:04,VALID,1004.96,VALID,0,VALID,85.5732,VALID,0,VALID,25.2981,VALID,333,VALID,0.733594,
2009-12-17, 01:02:04,VALID,1004.93,VALID,0,VALID,85.7791,VALID,0,VALID,25.2981,VALID,347,VALID,0.658594,
2009-12-17, 01:03:04,VALID,1004.94,VALID,0,VALID,85.8707,VALID,0,VALID,25.2786,VALID,348,VALID,0.654297,
2009-12-17, 01:04:04,VALID,1004.91,VALID,0,VALID,85.9546,VALID,0,VALID,25.2786,VALID,347,VALID,0.703516,
2009-12-17, 01:05:04,VALID,1004.92,VALID,0,VALID,85.8173,VALID,0.100563,VALID,25.2786,VALID,347,VALID,0.916016,
2009-12-17, 01:06:04,VALID,1004.89,VALID,0,VALID,85.7486,VALID,0,VALID,25.2981,VALID,353,VALID,0.916406,
2009-12-17, 01:07:04,VALID,1004.89,VALID,0,VALID,85.535,VALID,0,VALID,25.2981,VALID,349,VALID,0.844922,
2009-12-17, 01:08:04,VALID,1004.88,VALID,0,VALID,85.7791,VALID,0.100563,VALID,25.3584,VALID,356,VALID,0.927344,
2009-12-17, 01:09:04,VALID,1004.86,VALID,0,VALID,85.8173,VALID,0.100563,VALID,25.337,VALID,352,VALID,0.726953,
2009-12-17, 01:10:04,VALID,1004.84,VALID,0,VALID,85.7868,VALID,0,VALID,25.337,VALID,350,VALID,0.684375,
2009-12-17, 01:11:04,VALID,1004.84,VALID,0,VALID,85.596,VALID,0,VALID,25.337,VALID,358,VALID,1.13125,
2009-12-17, 01:12:04,VALID,1004.8,VALID,0,VALID,85.2985,VALID,0,VALID,25.3565,VALID,357,VALID,1.26875,
2009-12-17, 01:13:04,VALID,1004.8,VALID,0,VALID,85.2527,VALID,0,VALID,25.3955,VALID,355,VALID,1.20625,
2009-12-17, 01:14:04,VALID,1004.75,VALID,0,VALID,85.2375,VALID,0,VALID,25.4169,VALID,352,VALID,0.887891,
2009-12-17, 01:15:04,VALID,1004.71,VALID,0,VALID,85.1307,VALID,0,VALID,25.4344,VALID,355,VALID,0.848828,
2009-12-17, 01:16:04,VALID,1004.69,VALID,0,VALID,84.7492,VALID,0,VALID,25.4539,VALID,335,VALID,0.491797,
2009-12-17, 01:17:04,VALID,1004.69,VALID,0,VALID,84.6882,VALID,0,VALID,25.4928,VALID,358,VALID,0.977344,
2009-12-17, 01:18:04,VALID,1004.65,VALID,0,VALID,84.7035,VALID,0,VALID,25.5142,VALID,343,VALID,0.883984,
2009-12-17, 01:19:04,VALID,1004.65,VALID,0,VALID,84.4212,VALID,0,VALID,25.5123,VALID,353,VALID,0.767187,
2009-12-17, 01:20:04,VALID,1004.67,VALID,0,VALID,84.3602,VALID,0,VALID,25.5532,VALID,353,VALID,0.411328,
2009-12-17, 01:21:04,VALID,1004.62,VALID,0,VALID,84.2,VALID,0,VALID,25.5707,VALID,358,VALID,0.765625,
2009-12-17, 01:22:04,VALID,1004.64,VALID,0,VALID,84.0855,VALID,0,VALID,25.5727,VALID,359,VALID,0.585938,
2009-12-17, 01:23:04,VALID,1004.65,VALID,0,VALID,84.1694,VALID,0,VALID,25.5902,VALID,360,VALID,0.114453,
2009-12-17, 01:24:04,VALID,1004.64,VALID,0,VALID,84.1466,VALID,0,VALID,25.6116,VALID,347,VALID,0.262109,
2009-12-17, 01:25:04,VALID,1004.64,VALID,0,VALID,83.8643,VALID,0,VALID,25.5921,VALID,290,VALID,0.979688,
2009-12-17, 01:26:04,VALID,1004.62,VALID,0,VALID,83.8795,VALID,0,VALID,25.5902,VALID,276,VALID,0.286328,
2009-12-17, 01:27:04,VALID,1004.63,VALID,0,VALID,83.788,VALID,0,VALID,25.6116,VALID,288,VALID,1.05898,
2009-12-17, 01:28:04,VALID,1004.61,VALID,0,VALID,83.6659,VALID,0,VALID,25.5902,VALID,292,VALID,0.669531,
2009-12-17, 01:29:04,VALID,1004.63,VALID,0,VALID,83.6659,VALID,0,VALID,25.6097,VALID,296,VALID,1.17109,
2009-12-17, 01:30:04,VALID,1004.59,VALID,0,VALID,83.6812,VALID,0,VALID,25.6311,VALID,305,VALID,0.982813,
2009-12-17, 01:31:04,VALID,1004.58,VALID,0,VALID,83.8261,VALID,0,VALID,25.6292,VALID,286,VALID,0.619141,
2009-12-17, 01:32:04,VALID,1004.6,VALID,0,VALID,83.7117,VALID,0,VALID,25.6311,VALID,304,VALID,0.660547,
2009-12-17, 01:33:04,VALID,1004.59,VALID,0,VALID,83.7575,VALID,0,VALID,25.6116,VALID,285,VALID,1.13828,
2009-12-17, 01:34:04,VALID,1004.6,VALID,0,VALID,83.8261,VALID,0,VALID,25.5921,VALID,303,VALID,0.679297,
2009-12-17, 01:35:04,VALID,1004.64,VALID,0,VALID,83.9635,VALID,0,VALID,25.5707,VALID,299,VALID,0.601953,
2009-12-17, 01:36:04,VALID,1004.62,VALID,0,VALID,84.0703,VALID,0,VALID,25.5532,VALID,308,VALID,0.14375,
2009-12-17, 01:37:04,VALID,1004.65,VALID,0,VALID,84.2152,VALID,0,VALID,25.5337,VALID,295,VALID,0.305469,
2009-12-17, 01:38:04,VALID,1004.64,VALID,0,VALID,84.4059,VALID,0,VALID,25.4928,VALID,295,VALID,0.0484375,
2009-12-17, 01:39:04,VALID,1004.63,VALID,0,VALID,84.5127,VALID,0,VALID,25.4753,VALID,334,VALID,0.528906,
2009-12-17, 01:40:04,VALID,1004.62,VALID,0,VALID,84.4517,VALID,0,VALID,25.4344,VALID,3,VALID,0.874609,
2009-12-17, 01:41:04,VALID,1004.6,VALID,0,VALID,84.3602,VALID,0,VALID,25.4149,VALID,5,VALID,0.678125,
2009-12-17, 01:42:04,VALID,1004.6,VALID,0,VALID,84.4822,VALID,0,VALID,25.4363,VALID,354,VALID,0.852344,
2009-12-17, 01:43:04,VALID,1004.57,VALID,0,VALID,84.6882,VALID,0,VALID,25.4169,VALID,340,VALID,0.968359,
2009-12-17, 01:44:04,VALID,1004.53,VALID,0,VALID,84.7721,VALID,0,VALID,25.3779,VALID,349,VALID,0.596094,
2009-12-17, 01:45:04,VALID,1004.53,VALID,0,VALID,84.8332,VALID,0,VALID,25.3974,VALID,330,VALID,0.751953,
2009-12-17, 01:46:04,VALID,1004.54,VALID,0,VALID,84.8789,VALID,0,VALID,25.376,VALID,354,VALID,0.736328,
2009-12-17, 01:47:04,VALID,1004.5,VALID,0,VALID,84.7569,VALID,0,VALID,25.376,VALID,351,VALID,0.685547,
2009-12-17, 01:48:04,VALID,1004.5,VALID,0,VALID,84.7492,VALID,0,VALID,25.4169,VALID,4,VALID,0.782812,
2009-12-17, 01:49:04,VALID,1004.46,VALID,0,VALID,84.6958,VALID,0,VALID,25.3955,VALID,345,VALID,0.7875,
2009-12-17, 01:50:04,VALID,1004.44,VALID,0,VALID,84.6882,VALID,0,VALID,25.376,VALID,354,VALID,1.06758,
2009-12-17, 01:51:04,VALID,1004.43,VALID,0,VALID,84.9705,VALID,0,VALID,25.376,VALID,354,VALID,0.476563,
2009-12-17, 01:52:04,VALID,1004.41,VALID,0,VALID,84.7797,VALID,0,VALID,25.3974,VALID,342,VALID,0.728125,
2009-12-17, 01:53:04,VALID,1004.39,VALID,0,VALID,84.6424,VALID,0,VALID,25.3974,VALID,354,VALID,1.04219,
2009-12-17, 01:54:04,VALID,1004.38,VALID,0,VALID,84.6119,VALID,0,VALID,25.3974,VALID,332,VALID,0.914063,
2009-12-17, 01:55:04,VALID,1004.36,VALID,0,VALID,84.6043,VALID,0,VALID,25.4169,VALID,350,VALID,0.687891,
2009-12-17, 01:56:04,VALID,1004.33,VALID,0,VALID,84.5356,VALID,0,VALID,25.3955,VALID,352,VALID,0.757031,
2009-12-17, 01:57:04,VALID,1004.32,VALID,0,VALID,84.5051,VALID,0,VALID,25.4363,VALID,347,VALID,0.211328,
2009-12-17, 01:58:04,VALID,1004.32,VALID,0,VALID,84.322,VALID,0,VALID,25.4363,VALID,7,VALID,0.782031,
2009-12-17, 01:59:04,VALID,1004.29,VALID,0,VALID,84.2915,VALID,0,VALID,25.4344,VALID,300,VALID,0.313672,
2009-12-17, 02:00:04,VALID,1004.3,VALID,0,VALID,84.4212,VALID,0,VALID,25.4363,VALID,348,VALID,0.336328,
2009-12-17, 02:01:04,VALID,1004.28,VALID,0,VALID,84.3449,VALID,0,VALID,25.3955,VALID,348,VALID,0.135937,
2009-12-17, 02:02:04,VALID,1004.31,VALID,0,VALID,84.2381,VALID,0,VALID,25.3974,VALID,297,VALID,0.667578,
2009-12-17, 02:03:04,VALID,1004.28,VALID,0,VALID,84.0245,VALID,0,VALID,25.3955,VALID,294,VALID,0.950781,
2009-12-17, 02:04:04,VALID,1004.3,VALID,0,VALID,83.7651,VALID,0,VALID,25.4363,VALID,284,VALID,1.23359,
2009-12-17, 02:05:04,VALID,1004.31,VALID,0,VALID,83.6888,VALID,0,VALID,25.4948,VALID,309,VALID,0.441016,
2009-12-17, 02:06:04,VALID,1004.3,VALID,0,VALID,83.6278,VALID,0,VALID,25.4928,VALID,268,VALID,0.536328,
2009-12-17, 02:07:04,VALID,1004.32,VALID,0,VALID,83.4752,VALID,0,VALID,25.5123,VALID,297,VALID,1.00117,
2009-12-17, 02:08:04,VALID,1004.34,VALID,0,VALID,83.4142,VALID,0,VALID,25.5123,VALID,295,VALID,0.642187,
2009-12-17, 02:09:04,VALID,1004.31,VALID,0,VALID,83.4218,VALID,0,VALID,25.5123,VALID,291,VALID,0.523828,
2009-12-17, 02:10:04,VALID,1004.34,VALID,0,VALID,83.3684,VALID,0,VALID,25.5123,VALID,274,VALID,0.528516,
2009-12-17, 02:11:04,VALID,1004.34,VALID,0,VALID,83.5286,VALID,0,VALID,25.5123,VALID,275,VALID,0.339453,
2009-12-17, 02:12:04,VALID,1004.32,VALID,0,VALID,83.5973,VALID,0,VALID,25.5123,VALID,284,VALID,0.166016,
2009-12-17, 02:13:04,VALID,1004.3,VALID,0,VALID,83.5515,VALID,0,VALID,25.4948,VALID,284,VALID,0.015625,
2009-12-17, 02:14:04,VALID,1004.29,VALID,0,VALID,83.5439,VALID,0,VALID,25.4539,VALID,283,VALID,0.50625,
2009-12-17, 02:15:04,VALID,1004.26,VALID,0,VALID,83.5591,VALID,0,VALID,25.4753,VALID,305,VALID,0.299219,
2009-12-17, 02:16:04,VALID,1004.25,VALID,0,VALID,83.6659,VALID,0,VALID,25.4149,VALID,292,VALID,0.188281,
2009-12-17, 02:17:04,VALID,1004.26,VALID,0,VALID,83.7422,VALID,0,VALID,25.4363,VALID,332,VALID,0.635938,
2009-12-17, 02:18:04,VALID,1004.23,VALID,0,VALID,83.8109,VALID,0,VALID,25.3955,VALID,343,VALID,0.684766,
2009-12-17, 02:19:04,VALID,1004.23,VALID,0,VALID,83.9406,VALID,0,VALID,25.3565,VALID,338,VALID,0.203516,
2009-12-17, 02:20:04,VALID,1004.24,VALID,0,VALID,84.0016,VALID,0,VALID,25.3779,VALID,347,VALID,0.603516,
2009-12-17, 02:21:04,VALID,1004.24,VALID,0,VALID,84.0397,VALID,0,VALID,25.337,VALID,307,VALID,0.232422,
2009-12-17, 02:22:04,VALID,1004.23,VALID,0,VALID,84.0016,VALID,0,VALID,25.339,VALID,306,VALID,0.527344,
2009-12-17, 02:23:04,VALID,1004.23,VALID,0,VALID,84.1389,VALID,0,VALID,25.3176,VALID,23,VALID,0.0433594,
2009-12-17, 02:24:04,VALID,1004.26,VALID,0,VALID,83.9329,VALID,0,VALID,25.3176,VALID,306,VALID,0.527734,
2009-12-17, 02:25:04,VALID,1004.26,VALID,0,VALID,84.0626,VALID,0,VALID,25.3584,VALID,284,VALID,0.344531,
2009-12-17, 02:26:04,VALID,1004.22,VALID,0,VALID,84.055,VALID,0,VALID,25.337,VALID,293,VALID,0.433594,
2009-12-17, 02:27:04,VALID,1004.24,VALID,0,VALID,84.0474,VALID,0,VALID,25.3584,VALID,299,VALID,0.389453,
2009-12-17, 02:28:04,VALID,1004.23,VALID,0,VALID,84.2152,VALID,0,VALID,25.339,VALID,293,VALID,0.00078125,
2009-12-17, 02:29:04,VALID,1004.23,VALID,0,VALID,84.1084,VALID,0.100563,VALID,25.3176,VALID,303,VALID,0.485156,
2009-12-17, 02:30:04,VALID,1004.21,VALID,0,VALID,84.2228,VALID,0,VALID,25.2981,VALID,333,VALID,0.310156,
2009-12-17, 02:31:04,VALID,1004.21,VALID,0,VALID,84.3449,VALID,0,VALID,25.2981,VALID,337,VALID,0.154297,
2009-12-17, 02:32:04,VALID,1004.2,VALID,0,VALID,84.3754,VALID,0,VALID,25.3,VALID,350,VALID,0.264844,
2009-12-17, 02:33:04,VALID,1004.18,VALID,0,VALID,84.3678,VALID,0,VALID,25.2981,VALID,357,VALID,0.801953,
2009-12-17, 02:34:04,VALID,1004.16,VALID,0,VALID,84.1466,VALID,0,VALID,25.2981,VALID,349,VALID,1.03672,
2009-12-17, 02:35:04,VALID,1004.13,VALID,0,VALID,84.0855,VALID,0,VALID,25.3584,VALID,342,VALID,0.847656,
2009-12-17, 02:36:04,VALID,1004.14,VALID,0,VALID,84.1771,VALID,0,VALID,25.3565,VALID,356,VALID,0.573438,
2009-12-17, 02:37:04,VALID,1004.11,VALID,0,VALID,84.1008,VALID,0,VALID,25.3779,VALID,317,VALID,0.586328,
2009-12-17, 02:38:04,VALID,1004.12,VALID,0,VALID,84.0703,VALID,0.100563,VALID,25.3974,VALID,359,VALID,0.982813,
2009-12-17, 02:39:04,VALID,1004.1,VALID,0,VALID,83.9329,VALID,0.100563,VALID,25.3955,VALID,350,VALID,0.5,
2009-12-17, 02:40:04,VALID,1004.1,VALID,0,VALID,84.1008,VALID,0,VALID,25.4558,VALID,263,VALID,0.560547,
2009-12-17, 02:41:04,VALID,1004.11,VALID,0,VALID,83.7651,VALID,0.100563,VALID,25.4363,VALID,298,VALID,0.407813,
2009-12-17, 02:42:04,VALID,1004.09,VALID,0,VALID,83.6964,VALID,0,VALID,25.4539,VALID,350,VALID,0.0644531,
2009-12-17, 02:43:04,VALID,1004.1,VALID,0,VALID,83.2997,VALID,0,VALID,25.4948,VALID,323,VALID,0.874609,
2009-12-17, 02:44:04,VALID,1004.08,VALID,0,VALID,83.1319,VALID,0,VALID,25.5337,VALID,352,VALID,0.784375,
2009-12-17, 02:45:04,VALID,1004.05,VALID,0,VALID,83.0938,VALID,0,VALID,25.5123,VALID,347,VALID,0.847266,
2009-12-17, 02:46:04,VALID,1004.04,VALID,0,VALID,82.7581,VALID,0.100563,VALID,25.5707,VALID,3,VALID,1.46172,
2009-12-17, 02:47:04,VALID,1004.05,VALID,0,VALID,82.8344,VALID,0,VALID,25.5902,VALID,355,VALID,0.519922,
2009-12-17, 02:48:04,VALID,1004.04,VALID,0,VALID,82.6665,VALID,0,VALID,25.6097,VALID,343,VALID,0.89375,
2009-12-17, 02:49:04,VALID,1004.04,VALID,0,VALID,82.514,VALID,0,VALID,25.6311,VALID,337,VALID,0.982031,
2009-12-17, 02:50:04,VALID,1004.01,VALID,0,VALID,82.4758,VALID,0,VALID,25.6506,VALID,336,VALID,0.641797,
2009-12-17, 02:51:04,VALID,1004.03,VALID,0,VALID,82.3309,VALID,0,VALID,25.6486,VALID,328,VALID,0.814453,
2009-12-17, 02:52:04,VALID,1004.01,VALID,0,VALID,82.2622,VALID,0,VALID,25.6681,VALID,6,VALID,0.582422,
2009-12-17, 02:53:04,VALID,1003.99,VALID,0,VALID,82.2851,VALID,0,VALID,25.709,VALID,322,VALID,0.299219,
2009-12-17, 02:54:04,VALID,1003.99,VALID,0,VALID,82.4301,VALID,0.100563,VALID,25.7265,VALID,112,VALID,0.216797,
2009-12-17, 02:55:04,VALID,1003.96,VALID,0,VALID,81.9494,VALID,0,VALID,25.7265,VALID,285,VALID,1.31914,
2009-12-17, 02:56:04,VALID,1003.99,VALID,0,VALID,82.0486,VALID,0,VALID,25.7869,VALID,66,VALID,0.489062,
2009-12-17, 02:57:04,VALID,1003.97,VALID,0,VALID,81.8808,VALID,0,VALID,25.7869,VALID,276,VALID,0.666016,
2009-12-17, 02:58:04,VALID,1003.95,VALID,0,VALID,82.0181,VALID,0,VALID,25.8044,VALID,14,VALID,0.870313,
2009-12-17, 02:59:04,VALID,1003.92,VALID,0,VALID,82.0562,VALID,0,VALID,25.8239,VALID,313,VALID,0.550781,
2009-12-17, 03:00:04,VALID,1003.9,VALID,0,VALID,81.835,VALID,0,VALID,25.8843,VALID,255,VALID,0.523438,
2009-12-17, 03:01:04,VALID,1003.91,VALID,0,VALID,81.8121,VALID,0,VALID,25.8823,VALID,346,VALID,0.662891,
2009-12-17, 03:02:04,VALID,1003.89,VALID,0,VALID,81.6138,VALID,0.100563,VALID,25.9018,VALID,1,VALID,0.928516,
2009-12-17, 03:03:04,VALID,1003.88,VALID,0,VALID,81.5451,VALID,0,VALID,25.9018,VALID,300,VALID,1.20508,
2009-12-17, 03:04:04,VALID,1003.88,VALID,0,VALID,81.4688,VALID,0,VALID,25.9213,VALID,359,VALID,0.964844,
2009-12-17, 03:05:04,VALID,1003.9,VALID,0,VALID,81.3849,VALID,0,VALID,25.9213,VALID,349,VALID,0.834375,
2009-12-17, 03:06:04,VALID,1003.91,VALID,0,VALID,81.4612,VALID,0,VALID,25.9408,VALID,340,VALID,0.721094,
2009-12-17, 03:07:04,VALID,1003.92,VALID,0,VALID,81.507,VALID,0,VALID,25.9622,VALID,318,VALID,1.0625,
2009-12-17, 03:08:04,VALID,1003.96,VALID,0,VALID,81.6595,VALID,0,VALID,25.9408,VALID,334,VALID,0.514453,
2009-12-17, 03:09:04,VALID,1003.95,VALID,0,VALID,81.5909,VALID,0.100563,VALID,25.9622,VALID,321,VALID,0.546094,
2009-12-17, 03:10:04,VALID,1003.99,VALID,0,VALID,81.6214,VALID,0,VALID,25.9817,VALID,337,VALID,1.06602,
2009-12-17, 03:11:04,VALID,1004.01,VALID,0,VALID,81.6824,VALID,0,VALID,25.9622,VALID,295,VALID,1.38281,
2009-12-17, 03:12:04,VALID,1004.01,VALID,0,VALID,81.6748,VALID,0,VALID,25.9817,VALID,334,VALID,0.621094,
2009-12-17, 03:13:04,VALID,1004.04,VALID,0,VALID,81.6443,VALID,0,VALID,25.9817,VALID,351,VALID,0.404297,
2009-12-17, 03:14:04,VALID,1004.06,VALID,0,VALID,81.7358,VALID,0,VALID,25.9622,VALID,51,VALID,0.952734,
2009-12-17, 03:15:04,VALID,1004.08,VALID,0,VALID,81.7129,VALID,0,VALID,25.9408,VALID,342,VALID,0.840234,
2009-12-17, 03:16:04,VALID,1004.11,VALID,0,VALID,81.6519,VALID,0,VALID,25.9817,VALID,357,VALID,0.9,
2009-12-17, 03:17:04,VALID,1004.13,VALID,0,VALID,81.8731,VALID,0,VALID,25.9408,VALID,354,VALID,0.267578,
2009-12-17, 03:18:04,VALID,1004.15,VALID,0,VALID,81.9265,VALID,0,VALID,25.9213,VALID,264,VALID,0.451172,
2009-12-17, 03:19:04,VALID,1004.16,VALID,0,VALID,81.9723,VALID,0,VALID,25.9018,VALID,281,VALID,0.354297,
2009-12-17, 03:20:04,VALID,1004.16,VALID,0,VALID,82.0257,VALID,0,VALID,25.8843,VALID,303,VALID,0.177344,
2009-12-17, 03:21:04,VALID,1004.18,VALID,0,VALID,82.1707,VALID,0,VALID,25.8434,VALID,304,VALID,0.544141,
2009-12-17, 03:22:04,VALID,1004.17,VALID,0,VALID,82.3309,VALID,0,VALID,25.8259,VALID,327,VALID,0.514844,
2009-12-17, 03:23:04,VALID,1004.2,VALID,0,VALID,82.2851,VALID,0,VALID,25.8259,VALID,296,VALID,1.06367,
2009-12-17, 03:24:04,VALID,1004.19,VALID,0,VALID,82.5063,VALID,0,VALID,25.8044,VALID,262,VALID,0.358984,
2009-12-17, 03:25:04,VALID,1004.22,VALID,0,VALID,82.6055,VALID,0,VALID,25.8064,VALID,313,VALID,0.413672,
2009-12-17, 03:26:04,VALID,1004.19,VALID,0,VALID,82.6208,VALID,0,VALID,25.7674,VALID,327,VALID,0.285937,
2009-12-17, 03:27:04,VALID,1004.2,VALID,0,VALID,82.636,VALID,0,VALID,25.7265,VALID,297,VALID,1.04336,
2009-12-17, 03:28:04,VALID,1004.23,VALID,0,VALID,82.6437,VALID,0,VALID,25.748,VALID,330,VALID,0.207813,
2009-12-17, 03:29:04,VALID,1004.24,VALID,0,VALID,82.7123,VALID,0,VALID,25.7071,VALID,283,VALID,0.535547,
2009-12-17, 03:30:04,VALID,1004.24,VALID,0,VALID,82.6894,VALID,0,VALID,25.7071,VALID,292,VALID,0.992578,
2009-12-17, 03:31:04,VALID,1004.26,VALID,0,VALID,82.7276,VALID,0,VALID,25.7071,VALID,290,VALID,0.429688,
2009-12-17, 03:32:04,VALID,1004.26,VALID,0,VALID,82.7123,VALID,0,VALID,25.709,VALID,284,VALID,1.50859,
2009-12-17, 03:33:04,VALID,1004.3,VALID,0,VALID,82.8573,VALID,0,VALID,25.709,VALID,270,VALID,0.558594,
2009-12-17, 03:34:04,VALID,1004.31,VALID,0,VALID,82.8191,VALID,0,VALID,25.6895,VALID,281,VALID,0.749609,
2009-12-17, 03:35:04,VALID,1004.35,VALID,0,VALID,83.0709,VALID,0,VALID,25.709,VALID,275,VALID,0.383984,
2009-12-17, 03:36:04,VALID,1004.36,VALID,0,VALID,83.3303,VALID,0,VALID,25.6486,VALID,341,VALID,0.49375,
2009-12-17, 03:37:04,VALID,1004.35,VALID,0,VALID,83.109,VALID,0,VALID,25.6506,VALID,306,VALID,1.31836,
2009-12-17, 03:38:04,VALID,1004.39,VALID,0,VALID,83.3531,VALID,0,VALID,25.6292,VALID,298,VALID,0.330859,
2009-12-17, 03:39:04,VALID,1004.4,VALID,0,VALID,83.4065,VALID,0,VALID,25.6292,VALID,299,VALID,0.738281,
2009-12-17, 03:40:04,VALID,1004.39,VALID,0,VALID,83.3684,VALID,0,VALID,25.6097,VALID,307,VALID,0.487891,
2009-12-17, 03:41:04,VALID,1004.44,VALID,0,VALID,83.315,VALID,0,VALID,25.6116,VALID,293,VALID,0.876562,
2009-12-17, 03:42:04,VALID,1004.43,VALID,0,VALID,83.376,VALID,0,VALID,25.5921,VALID,309,VALID,0.758203,
2009-12-17, 03:43:04,VALID,1004.43,VALID,0,VALID,83.3379,VALID,0,VALID,25.6116,VALID,296,VALID,0.938281,
2009-12-17, 03:44:04,VALID,1004.43,VALID,0,VALID,83.3303,VALID,0,VALID,25.5707,VALID,283,VALID,1.10977,